Wind_Speed
29 27 23 21 22 21 21 22 25 25 24 24 23 23 23 22 24 24 24 22 22 24 23 21 19 17 15 14 13 12 11 11 11 12 11 11 11 10 10 10 9 9 8 7 7 7 7 7 7 6 6 6 7 8 9 8 8 7 6 7 6 6 6 7 5 5 5 5 4 3 2 2 1 1 1 1 3 3 1 1 1 3 6 7 7
30 29 26 24 24 23 22 24 26 26 25 23 23 23 23 23 25 24 23 21 21 24 24 21 19 17 16 15 14 13 12 11 11 12 11 11 11 10 10 10 10 8 7 7 7 7 7 6 7 6 5 6 8 9 10 9 8 7 7 7 6 6 7 7 5 5 5 5 4 2 2 3 3 3 3 3 4 4 2 1 2 3 4 6 6
30 31 30 27 25 25 24 25 26 25 24 22 21 21 22 25 25 24 22 20 21 24 23 21 19 17 15 14 13 12 11 10 10 10 10 10 11 10 10 10 10 9 6 5 5 6 6 6 6 6 6 7 8 9 10 10 9 8 8 7 6 7 7 6 4 5 4 3 2 1 2 3 4 5 4 4 5 5 3 1 1 2 4 5 7
32 32 32 29 27 27 26 26 25 24 23 23 22 21 23 26 26 24 23 21 22 24 23 22 20 17 15 14 13 12 10 9 9 9 9 8 9 10 10 10 10 9 7 5 5 6 6 6 7 6 6 7 8 9 10 10 9 8 8 7 6 6 6 5 4 5 4 3 1 1 2 3 4 4 4 4 6 5 2 1 1 3 4 6 8
34 34 33 31 29 28 27 26 25 25 24 24 23 22 22 23 24 24 23 22 23 25 24 23 21 19 17 15 16 14 12 12 12 11 10 9 10 10 10 10 10 10 8 7 7 6 6 7 7 7 6 6 8 9 10 10 9 8 8 6 5 5 5 5 4 5 5 5 4 2 2 2 2 3 3 3 4 4 2 1 2 3 5 7 8
36 35 34 32 30 30 28 27 26 25 25 24 23 21 19 20 22 24 24 23 24 25 25 24 22 21 20 18 19 18 16 15 14 13 11 10 11 11 10 11 11 10 9 8 8 7 6 7 7 7 7 8 9 9 9 10 9 8 7 6 5 5 5 4 4 5 5 6 6 4 2 1 0 3 3 2 2 3 2 2 3 3 6 7 8
36 36 35 33 32 32 30 28 26 24 25 24 23 21 19 19 21 23 24 23 23 25 26 25 23 22 21 20 20 18 17 16 14 12 10 10 11 12 11 12 12 11 10 9 8 7 7 7 7 8 8 9 9 9 9 9 9 8 7 6 6 5 5 4 4 5 5 6 6 4 3 1 0 2 3 2 2 3 3 3 3 4 6 7 8
37 37 36 35 33 33 31 29 26 24 24 25 24 22 20 20 20 20 23 24 24 25 26 25 24 23 21 21 21 19 16 15 14 12 10 11 13 13 12 12 12 11 11 10 9 8 8 7 7 8 8 8 9 9 9 9 8 7 7 7 6 6 5 4 4 5 5 5 4 3 3 2 1 1 1 2 3 3 4 4 5 5 6 8 9
37 38 38 36 35 33 31 28 26 24 24 25 25 23 21 20 19 19 22 25 24 25 26 24 23 22 20 20 21 19 16 14 14 12 11 13 13 13 13 13 12 12 11 11 10 9 9 8 8 8 8 8 8 8 8 9 8 7 7 7 7 7 5 4 4 4 5 4 4 3 3 3 2 3 4 4 4 5 5 5 6 7 7 7 8
39 39 39 38 36 33 30 28 26 25 24 24 24 23 21 21 21 20 22 25 24 24 25 23 22 21 19 19 19 18 16 15 15 14 13 14 14 13 13 13 12 12 12 11 10 9 9 9 8 8 9 9 9 8 8 9 8 8 8 7 8 8 7 6 5 5 5 5 5 5 4 4 4 4 5 6 6 6 7 8 9 9 9 8 7
40 40 40 39 36 34 32 30 27 25 25 25 25 24 22 21 22 21 22 24 24 24 24 23 22 21 20 18 18 18 17 17 17 17 16 15 15 14 14 13 13 12 13 12 10 10 10 9 9 9 10 10 9 9 8 8 8 8 8 7 8 8 8 8 7 6 6 6 7 7 6 5 5 5 6 7 7 7 9 10 10 10 11 10 9
41 41 41 40 39 37 34 33 30 28 27 27 26 25 24 23 23 23 24 25 24 24 24 23 22 21 20 19 18 18 18 19 19 18 17 17 16 15 13 13 13 13 13 12 11 10 10 10 10 10 10 9 9 9 9 8 7 7 7 7 7 7 8 9 8 8 8 8 7 8 8 6 5 6 6 7 8 9 10 11 11 11 11 10 10
41 41 41 41 40 39 37 35 33 31 29 29 28 27 26 25 24 24 26 26 25 25 24 23 22 21 20 20 19 18 18 19 19 18 17 16 15 15 13 13 13 13 13 13 11 11 11 10 10 10 9 9 8 9 9 8 7 6 8 8 8 7 7 8 9 9 9 9 8 8 8 7 6 5 6 6 7 8 9 9 9 10 11 10 11
41 42 42 42 42 40 39 37 35 33 31 30 28 27 27 26 25 25 26 26 26 26 25 23 22 22 21 19 19 19 19 19 19 18 16 14 13 14 13 13 12 12 12 11 11 11 11 10 10 10 9 9 9 8 9 9 8 7 8 8 7 7 7 8 9 9 9 10 9 8 8 7 5 5 5 6 6 6 7 8 8 9 9 10 10
39 42 43 43 43 42 40 39 37 34 32 31 30 28 27 27 26 26 26 25 26 26 25 24 23 22 22 20 19 19 19 18 18 17 15 14 13 12 12 12 11 10 10 10 10 11 11 11 10 10 10 9 9 9 9 9 8 7 7 7 7 7 7 8 9 9 9 10 10 9 8 7 5 4 4 4 5 6 6 7 8 9 10 10 9
38 42 43 44 44 43 41 40 38 35 34 33 31 29 28 27 27 26 25 24 24 25 25 24 23 22 22 21 20 19 19 18 17 17 16 14 13 13 12 11 10 10 9 10 11 10 10 11 11 10 10 9 9 9 9 9 9 8 8 8 7 7 7 8 8 9 10 10 10 10 9 7 5 5 4 5 5 5 5 6 7 8 9 10 10
37 42 44 44 44 44 43 41 38 37 35 33 31 29 27 26 26 26 24 22 23 24 25 24 23 23 22 22 21 20 19 18 17 16 16 15 14 14 13 12 11 11 11 11 11 10 10 11 11 10 10 9 9 9 9 9 9 9 9 9 9 9 9 8 9 9 9 10 10 10 9 7 6 5 5 5 5 5 5 5 6 6 7 9 10
36 39 42 44 44 44 43 42 39 37 35 33 30 28 27 25 25 25 25 23 23 24 25 24 24 23 23 22 22 21 20 18 16 16 16 15 15 15 14 13 12 12 12 11 11 10 10 11 11 10 9 9 9 9 9 9 9 9 9 9 9 10 10 9 9 8 9 10 11 11 11 9 8 7 6 6 6 6 6 5 5 6 7 8 10
33 35 37 41 43 44 44 43 41 37 35 33 30 28 28 25 24 25 24 22 21 23 25 25 24 24 23 22 21 20 20 18 16 16 16 17 16 15 15 14 12 12 11 11 11 10 10 10 10 10 9 9 9 9 9 9 9 9 8 8 9 10 10 9 9 8 9 10 11 12 12 10 9 8 7 8 8 8 8 7 6 7 7 9 10
31 32 33 37 41 44 45 44 42 39 36 33 31 30 29 26 24 25 24 23 22 22 25 25 25 24 23 22 21 20 20 19 17 16 17 17 16 16 15 14 13 12 11 11 10 9 10 10 10 9 9 9 9 9 9 8 8 9 9 8 9 10 10 9 9 9 9 10 11 11 12 11 11 11 9 10 11 11 11 10 9 9 8 9 10
31 32 32 33 37 42 45 44 42 40 37 35 33 32 30 28 26 26 26 25 24 23 24 26 25 25 24 22 21 20 20 20 19 17 17 17 16 16 15 14 13 13 12 11 10 9 9 9 9 9 9 9 9 9 8 8 8 8 9 9 9 10 10 9 9 10 9 9 10 11 12 12 12 12 11 11 12 13 13 12 11 11 10 10 10
29 31 30 30 33 38 42 44 43 42 39 37 35 34 33 31 28 27 27 27 25 24 24 26 26 25 24 23 21 20 20 20 19 19 18 17 16 16 15 14 14 13 12 11 9 8 8 8 9 9 9 9 9 8 7 8 8 8 8 9 9 10 9 8 9 9 9 9 10 10 11 12 13 13 12 12 12 12 11 10 9 10 11 10 9
27 29 30 31 33 34 36 38 40 42 41 39 37 35 35 34 30 28 28 27 24 23 23 25 25 25 24 23 22 21 19 19 20 20 19 18 17 16 16 15 13 12 11 10 8 7 7 8 8 9 9 8 8 8 7 7 7 7 7 8 9 9 9 8 9 9 8 8 10 10 11 11 12 13 12 12 12 11 10 9 8 9 9 8 8
27 29 31 32 33 33 34 34 35 37 37 37 38 38 37 35 32 30 29 27 23 21 22 24 24 24 23 22 22 21 20 20 20 21 20 19 18 16 15 14 13 12 12 10 9 8 8 8 9 9 9 8 8 8 8 7 7 7 8 8 9 9 9 8 8 8 9 9 10 10 10 11 11 12 12 12 12 11 11 11 9 8 8 8 7
29 31 31 32 32 33 36 36 36 36 35 32 33 37 39 38 35 31 29 27 24 21 21 23 24 23 23 22 22 22 21 20 21 21 20 19 18 16 15 14 13 14 14 12 10 10 10 10 9 9 9 8 8 8 9 8 7 8 9 9 9 10 10 10 9 10 10 10 11 10 10 11 11 12 11 11 12 12 12 12 10 8 7 6 6
30 33 34 34 35 34 35 37 40 41 40 35 29 29 33 36 36 35 33 31 28 23 21 22 24 24 23 22 23 23 22 21 21 21 20 19 18 17 15 14 14 15 14 13 12 12 12 12 11 10 9 9 8 9 9 9 8 9 10 10 10 10 11 11 11 11 11 11 11 11 11 11 12 12 12 11 12 12 12 11 9 7 7 6 6
28 30 32 35 38 39 37 38 43 44 44 42 36 30 30 31 34 37 36 33 30 27 24 23 24 24 23 23 23 23 22 21 21 20 20 20 19 17 16 15 14 15 15 15 15 15 15 14 13 12 11 10 9 9 9 10 10 11 12 12 12 12 12 13 12 11 11 12 12 12 13 13 13 13 12 12 12 12 12 11 9 9 9 8 7
24 26 28 31 36 39 39 39 42 45 45 44 41 38 36 35 35 35 34 31 27 26 26 25 25 25 24 22 21 21 21 20 18 18 19 21 21 18 16 16 16 17 17 16 16 16 16 16 15 14 13 12 12 12 12 11 11 12 13 14 13 13 14 14 14 13 12 12 12 12 13 13 13 13 13 12 12 12 11 11 10 10 10 9 8
19 21 24 27 31 34 36 37 37 39 42 41 40 40 40 40 39 35 33 31 27 25 25 25 24 24 23 21 19 19 20 19 17 16 17 19 21 19 17 17 18 19 19 19 18 18 17 17 17 17 16 16 16 15 14 14 14 13 13 14 13 14 15 15 14 14 13 13 13 12 12 12 12 12 11 12 12 11 11 11 11 12 12 12 12
14 17 19 23 26 28 30 32 33 34 37 38 38 39 39 40 39 37 34 32 28 26 25 24 24 23 22 21 19 18 19 18 17 17 16 17 19 20 20 20 20 20 20 20 20 20 20 20 20 19 19 20 20 18 16 16 16 15 14 14 14 14 15 16 16 15 15 14 13 13 13 12 12 11 11 12 11 11 12 12 12 13 13 14 15
11 13 15 18 21 23 26 28 28 29 32 33 34 36 37 36 36 36 35 31 28 27 26 25 24 24 24 23 21 20 19 19 19 19 18 18 19 21 22 23 23 23 22 21 20 20 21 22 23 23 22 22 21 19 18 18 18 18 17 16 16 15 16 18 18 17 16 15 14 14 13 12 12 11 11 11 11 11 12 13 13 13 14 15 17
10 11 12 13 16 19 23 24 24 25 27 28 29 30 31 32 33 33 32 31 29 28 27 26 25 25 25 25 24 22 21 22 22 21 21 21 21 22 23 25 26 25 25 24 23 21 20 21 22 23 23 23 21 20 20 20 20 20 20 19 18 17 18 19 20 19 17 15 14 14 13 12 11 11 11 11 11 11 12 13 13 14 15 16 17
9 10 11 13 15 18 21 22 22 22 24 25 24 24 25 26 28 30 30 30 29 28 27 26 24 23 25 25 25 24 24 25 25 24 23 23 23 24 25 26 27 27 27 27 27 26 25 23 22 22 22 22 21 21 21 21 22 22 21 21 20 19 19 19 21 21 19 17 15 15 14 14 13 13 13 14 14 13 13 13 13 14 14 16 17
13 13 14 16 15 16 19 21 21 22 22 24 23 23 24 24 24 26 27 25 24 24 25 24 22 22 24 24 24 25 26 26 26 26 26 26 26 26 26 27 27 28 29 29 29 29 28 27 25 24 23 22 21 20 20 21 22 22 22 20 19 19 19 21 23 23 22 20 18 17 16 16 17 16 16 16 16 15 15 14 14 14 15 16 17
15 15 16 16 14 13 13 14 16 18 19 20 19 19 22 23 21 22 23 21 20 22 24 23 22 22 23 24 24 25 26 26 27 27 27 27 27 27 27 28 29 29 30 30 29 29 27 26 26 26 25 24 23 22 21 21 22 22 23 23 23 22 21 21 23 24 25 24 22 21 20 19 19 18 18 17 17 16 15 15 14 14 14 15 17
15 15 15 15 14 13 11 10 11 12 13 14 14 14 18 21 22 23 24 22 22 22 24 24 23 23 24 25 25 25 26 26 27 28 28 28 28 28 28 29 29 29 30 29 28 26 24 23 23 24 24 24 24 24 24 24 23 23 24 26 28 29 29 26 24 23 24 25 25 24 24 22 21 21 20 20 18 16 15 15 14 14 14 15 16
15 15 14 15 14 13 12 11 13 14 13 12 13 13 15 19 22 23 23 23 22 22 22 22 21 22 23 24 25 25 26 26 26 26 27 27 28 29 29 30 30 29 28 28 27 27 26 25 24 24 24 24 26 26 26 26 26 26 27 27 28 29 31 32 30 26 24 25 27 27 26 25 24 22 22 21 19 17 16 15 15 14 15 15 16
14 13 12 13 12 12 12 11 12 13 12 12 12 12 13 17 19 19 19 19 19 18 17 18 18 19 21 22 22 23 24 24 23 23 22 23 24 25 26 27 27 27 27 28 28 29 28 28 28 27 27 28 30 30 29 29 30 30 31 31 30 28 28 30 30 29 27 27 28 28 27 26 25 23 23 21 20 18 17 16 16 16 16 17 17
11 11 10 10 9 9 9 8 9 10 10 10 10 10 11 13 15 15 15 14 14 13 13 14 15 15 16 18 19 20 20 20 20 20 20 21 22 23 24 24 24 24 25 26 27 26 26 27 28 29 31 32 32 33 33 32 33 33 33 34 34 33 32 30 30 29 29 29 29 28 27 27 26 24 23 22 20 19 18 17 17 17 17 18 18
11 12 13 12 11 10 9 8 8 9 10 9 9 9 9 10 11 11 11 11 11 10 10 11 11 11 12 13 14 15 16 17 16 16 18 19 20 21 22 23 22 21 21 21 22 24 25 25 27 28 30 31 31 31 32 31 32 32 33 35 35 34 33 33 33 34 34 31 29 27 26 26 26 24 22 21 21 20 19 18 17 17 18 18 19
13 14 15 15 14 12 12 12 12 12 11 10 9 9 9 9 9 9 9 9 8 8 8 8 8 8 8 8 9 9 11 11 9 9 11 13 13 13 15 14 12 11 12 11 12 15 18 20 21 22 23 24 25 26 27 27 28 28 30 32 32 29 30 33 34 37 37 34 31 29 28 27 25 23 21 20 21 21 19 18 18 18 18 18 17
14 15 15 14 14 13 13 13 13 12 11 10 8 8 9 9 9 9 8 7 6 5 4 3 3 3 3 4 5 5 6 6 4 3 5 6 6 7 8 8 6 4 5 5 6 9 12 13 13 13 13 14 16 18 19 20 22 23 24 25 25 24 27 32 33 36 37 35 33 32 30 28 26 22 20 20 21 21 17 14 15 16 17 16 16
13 14 13 14 15 15 15 15 14 13 11 9 7 8 10 10 10 11 10 9 8 7 6 5 4 3 3 3 3 3 3 3 2 2 3 3 4 4 5 5 3 1 1 2 3 5 5 6 7 7 7 7 8 9 11 12 13 15 16 17 18 18 21 26 28 31 35 36 37 35 32 28 25 20 18 18 18 16 13 11 12 14 15 16 15
14 14 13 13 14 15 16 16 14 13 12 9 8 9 10 11 11 12 11 9 9 8 7 7 6 5 5 4 3 3 2 1 1 1 1 2 2 1 2 1 1 2 2 2 2 2 3 4 5 6 6 7 7 6 7 7 7 7 8 9 11 12 13 15 17 19 21 23 25 26 24 21 18 15 13 13 13 12 11 11 13 14 15 16 16
14 15 14 13 14 14 14 15 13 13 12 11 10 10 10 12 13 13 11 10 10 9 8 8 8 7 6 4 3 3 2 1 1 1 1 1 1 1 1 0 2 2 2 3 3 4 4 4 4 4 5 6 7 6 5 4 5 6 7 8 8 7 7 8 9 9 8 7 6 7 9 11 11 10 10 10 10 11 12 13 14 15 15 15 14
13 14 13 12 12 12 12 13 13 13 12 12 11 10 10 11 12 11 10 10 9 8 8 8 8 7 6 4 3 2 1 1 1 2 2 1 2 1 1 1 1 2 3 3 4 4 3 3 3 3 4 5 6 6 5 6 7 8 10 11 11 11 9 7 6 5 5 5 4 3 4 6 7 8 9 9 10 12 13 14 14 14 13 12 11
13 13 12 11 11 11 11 11 11 11 10 10 10 10 10 11 12 11 10 9 8 7 7 7 7 7 6 4 3 1 1 1 1 1 2 2 2 2 2 2 2 3 3 4 4 3 3 3 4 4 5 5 5 5 6 7 8 10 10 12 13 14 14 12 9 7 5 5 5 5 5 6 7 7 8 8 8 10 10 10 10 10 9 9 9
13 13 12 10 9 9 9 8 9 9 9 9 9 9 9 10 10 10 9 8 7 6 6 6 6 5 4 3 1 0 0 1 2 2 2 3 3 3 3 3 4 4 5 5 6 5 4 4 6 6 7 6 7 7 7 8 9 10 10 11 12 12 13 13 12 9 7 5 5 5 5 5 6 6 5 5 5 6 7 6 6 7 7 8 8
12 13 12 11 9 8 8 8 9 9 9 8 8 8 8 8 8 7 7 6 5 5 4 3 3 3 2 1 1 2 2 3 3 3 3 4 4 4 3 4 5 6 6 7 7 7 7 8 9 9 9 9 9 10 11 11 12 13 13 12 12 11 11 11 10 10 8 6 6 5 4 4 3 2 2 2 2 4 5 5 5 5 6 7 7
9 10 10 10 9 8 8 9 9 9 9 8 7 8 7 7 5 4 4 4 4 4 3 2 2 2 3 3 4 5 6 6 6 6 7 7 6 6 5 5 6 7 7 8 9 9 10 10 11 11 12 12 13 14 14 15 16 17 16 15 13 12 11 10 9 8 8 8 8 7 7 7 7 5 3 2 2 2 3 5 6 7 7 7 8
6 6 7 8 9 8 7 8 9 9 9 8 7 7 6 5 3 2 2 2 2 3 2 3 3 4 5 6 7 8 9 10 10 10 10 9 9 8 8 7 6 7 8 9 10 11 12 12 13 13 15 16 17 17 17 17 17 17 16 14 12 11 11 10 9 7 7 7 8 7 8 10 11 10 9 9 8 8 7 8 9 10 10 9 9
Wind_Direction
186 183 180 176 177 176 176 177 176 176 176 177 178 175 171 169 169 171 171 168 167 169 172 173 174 176 178 178 173 168 169 178 186 190 196 204 213 218 213 208 202 192 186 184 184 184 186 190 191 189 181 179 182 184 189 186 182 185 177 163 158 166 175 172 174 179 182 181 162 152 194 228 276 338 289 287 309 306 322 28 54 62 65 61 53
184 185 185 181 179 178 178 179 178 177 178 180 182 178 174 173 172 171 172 171 170 172 175 177 178 176 176 175 171 170 173 179 184 185 192 202 208 211 209 209 211 205 192 185 187 185 184 190 192 189 181 184 184 186 194 193 190 189 178 171 170 169 167 158 155 155 156 156 144 152 209 236 257 263 269 275 281 270 245 107 89 64 52 46 41
182 185 187 184 182 181 180 181 181 180 179 180 181 180 179 179 176 174 176 176 173 174 177 181 183 183 181 180 178 179 181 179 180 182 188 199 206 208 208 210 212 210 204 199 197 192 187 190 193 190 184 182 182 187 195 197 197 192 182 180 178 174 173 174 175 171 162 141 131 197 242 257 260 255 265 279 284 274 253 172 90 36 12 12 12
182 185 186 185 184 184 182 182 184 184 184 182 181 183 184 184 182 180 180 181 179 178 181 184 186 191 193 194 195 194 192 187 190 194 195 200 206 208 208 208 210 210 216 219 212 203 198 197 197 198 194 183 181 188 193 198 201 195 190 190 185 180 183 192 194 188 196 205 206 253 254 266 266 257 261 272 286 286 253 215 348 346 340 348 355
183 184 186 186 185 187 186 185 186 188 189 186 186 188 188 189 189 187 184 185 185 184 184 185 188 193 196 201 202 203 205 204 206 208 206 206 209 209 207 208 209 212 221 222 214 207 200 199 196 194 196 190 186 190 193 200 204 199 198 199 193 184 181 188 192 192 200 214 237 265 257 260 255 236 236 248 280 277 228 269 316 326 333 337 340
186 187 187 188 188 188 188 188 189 192 194 191 192 195 194 194 194 192 190 188 190 189 186 187 191 195 198 200 200 203 210 212 212 213 211 209 206 205 205 206 208 213 219 215 211 213 204 199 197 192 194 192 190 191 193 202 205 199 201 203 197 188 182 183 190 198 204 217 240 260 254 245 182 208 224 246 262 241 234 308 301 312 337 341 335
187 189 189 190 190 190 191 192 194 196 197 196 197 200 200 196 193 194 194 191 191 191 190 191 193 196 201 204 203 208 214 215 216 216 217 214 204 200 201 204 206 208 211 211 211 214 206 199 202 201 197 194 191 189 192 200 202 197 198 198 195 193 191 194 202 205 208 219 231 237 228 220 30 224 231 251 252 237 256 286 281 290 322 334 332
186 188 189 191 191 193 194 195 198 200 199 199 200 204 204 196 191 195 196 194 193 194 195 197 198 198 201 205 208 213 217 220 220 217 218 214 203 198 200 203 206 204 204 208 209 206 203 203 206 206 203 200 195 193 195 198 197 197 201 201 201 202 199 204 215 207 203 214 220 223 232 250 299 285 279 283 280 284 282 278 274 277 299 314 315
188 189 191 192 194 196 197 198 200 201 201 203 203 206 207 199 197 201 200 198 196 197 198 201 204 206 205 206 208 211 215 220 221 215 209 205 201 200 201 203 206 205 202 207 210 204 202 203 205 206 208 210 208 204 205 202 200 204 209 212 215 215 215 220 228 218 212 226 239 247 262 273 279 296 318 317 302 305 311 308 296 285 288 302 306
190 192 193 195 196 198 200 200 201 203 204 206 206 207 208 204 204 209 207 202 200 199 201 205 210 212 212 210 210 211 212 216 217 210 203 201 201 202 204 205 207 209 207 208 209 206 205 204 203 207 212 218 220 215 211 210 210 211 214 219 220 219 223 229 237 236 237 248 255 259 269 283 293 299 309 314 310 307 312 315 311 301 296 300 304
190 193 194 197 199 199 200 201 202 204 205 207 208 209 210 208 210 215 212 206 203 202 203 208 211 212 215 216 216 215 214 215 214 209 204 201 202 203 205 207 209 212 210 208 208 209 213 211 209 214 215 218 222 219 215 218 220 218 219 221 217 217 222 228 235 241 245 254 260 263 265 275 293 302 300 300 302 305 306 308 309 307 304 304 305
190 192 194 195 197 197 199 201 202 203 204 207 209 211 212 212 214 216 213 208 205 204 205 209 211 211 214 218 220 220 219 218 216 213 209 204 203 204 206 210 211 210 207 207 209 213 218 218 217 222 221 221 224 225 224 228 233 229 225 224 219 220 224 226 230 237 243 250 258 262 262 268 282 296 298 292 293 301 306 307 306 306 307 310 314
191 192 194 195 195 197 199 201 202 203 204 207 210 213 214 215 216 215 211 209 208 208 207 209 211 211 213 216 219 220 220 220 219 217 214 208 205 205 208 212 212 211 208 208 211 216 221 222 223 227 228 228 231 233 231 233 241 236 229 228 225 229 234 231 231 238 245 249 255 260 261 265 276 294 301 296 297 300 303 306 309 310 312 317 323
193 194 194 195 196 198 200 201 202 204 206 207 210 213 215 216 216 213 211 210 210 211 210 210 212 212 213 215 217 216 217 220 220 220 218 214 211 210 212 214 216 216 212 210 214 218 223 225 224 227 229 230 233 236 234 236 240 235 233 233 231 236 244 244 242 242 246 250 254 258 261 267 278 299 308 309 314 311 307 311 319 322 320 324 328
195 196 196 198 199 200 201 202 203 205 206 208 211 212 213 215 214 211 210 211 211 211 211 211 212 214 214 212 213 215 217 220 222 221 221 219 218 217 215 215 220 223 218 216 219 221 227 228 226 226 224 226 234 238 238 240 239 235 237 237 236 242 247 250 253 249 247 250 252 255 261 270 282 292 300 314 325 321 315 316 322 326 324 327 330
197 198 198 199 201 202 203 203 204 205 206 209 211 212 211 211 211 208 208 211 214 213 212 211 213 215 215 212 214 217 219 221 221 220 219 220 224 224 220 220 222 225 223 221 221 223 227 229 228 227 222 224 236 238 237 238 238 240 244 238 235 245 247 248 256 256 252 252 252 255 261 268 277 280 285 301 313 315 312 309 316 325 327 332 335
198 200 200 201 201 203 204 205 205 205 206 208 211 212 210 209 208 207 209 213 216 216 214 212 212 214 215 215 216 219 220 222 222 220 218 220 226 226 225 225 223 223 222 221 223 223 222 225 228 228 223 228 238 238 235 236 238 243 247 240 235 243 247 249 256 260 256 253 250 254 260 261 267 276 284 293 298 297 292 295 312 321 325 331 334
199 202 202 202 202 203 205 206 207 207 207 209 211 212 210 209 208 207 209 213 216 218 217 214 213 213 215 215 217 218 219 222 223 224 223 226 228 225 223 225 223 221 221 223 224 222 220 223 225 227 227 233 238 236 231 233 237 240 244 246 244 247 252 254 257 257 256 253 248 249 255 260 267 275 282 287 294 295 287 284 299 312 319 323 325
199 202 204 205 204 205 206 208 209 209 210 210 211 212 211 210 211 210 211 214 216 219 219 217 214 214 215 216 218 219 218 219 222 224 225 228 228 222 221 223 222 220 222 223 223 222 226 227 226 227 231 236 238 234 231 232 234 236 240 248 250 251 254 256 255 252 251 252 250 248 251 259 267 270 275 285 293 298 294 287 288 298 309 316 319
201 201 205 208 208 208 208 209 210 210 211 212 211 211 211 211 213 213 213 215 218 219 220 219 216 215 216 217 219 221 220 219 221 222 223 226 225 221 220 221 220 220 220 220 224 229 232 234 233 232 233 236 237 235 236 238 239 239 237 241 245 248 254 258 257 253 250 251 252 250 251 258 267 270 275 285 291 294 293 289 289 294 303 312 316
206 204 206 210 212 211 210 211 212 212 211 213 213 212 213 214 215 215 215 216 218 219 220 219 217 216 216 216 217 220 221 221 222 223 223 222 222 222 221 220 218 220 221 223 230 234 233 235 239 238 236 237 237 237 239 243 247 246 241 240 243 247 253 259 259 257 256 257 257 255 254 258 265 273 279 283 285 286 286 288 289 291 297 302 304
207 207 205 206 208 209 210 210 212 212 211 213 215 215 214 215 216 217 217 218 220 221 219 218 218 217 216 216 217 219 221 223 222 222 222 220 221 222 221 221 219 219 224 229 232 231 230 235 240 240 240 237 234 232 233 241 248 248 245 244 246 249 251 252 255 256 256 260 261 259 257 258 262 269 274 277 276 274 275 280 284 288 294 296 295
205 204 203 203 203 204 207 209 210 212 213 214 216 216 216 217 218 219 219 219 222 223 220 217 219 219 217 215 215 217 220 222 223 222 221 220 220 220 220 222 223 221 222 225 227 226 227 234 240 241 242 238 232 227 229 239 246 247 249 250 251 253 252 251 254 252 250 257 260 257 255 255 257 261 265 267 268 266 268 273 276 282 289 291 290
201 200 203 204 204 204 206 207 208 208 210 214 217 218 218 217 218 219 220 219 219 221 219 218 218 219 218 216 214 216 217 220 223 224 223 222 221 222 224 225 225 223 219 218 222 226 227 232 239 242 241 236 229 229 233 239 243 248 252 252 253 256 256 257 258 254 252 259 261 258 256 256 257 260 263 265 264 263 266 272 274 274 276 279 284
198 199 201 202 203 206 207 208 209 208 208 210 215 219 219 219 219 219 219 219 218 219 219 218 217 218 219 217 214 215 216 218 221 223 224 223 221 222 224 224 223 219 218 219 226 231 233 235 240 243 242 240 239 243 248 250 251 255 256 255 256 257 257 258 257 254 254 258 260 260 257 258 260 262 266 268 267 266 268 271 273 269 263 265 276
199 200 203 204 205 208 209 211 213 212 211 210 212 217 217 215 215 215 216 216 215 216 218 216 216 218 219 217 216 216 217 218 220 222 222 220 216 217 222 225 224 222 221 225 230 234 235 238 243 245 246 251 254 256 261 265 266 267 264 261 260 259 255 253 254 257 260 262 264 266 266 266 267 268 272 274 273 272 272 270 265 258 252 254 267
201 202 204 206 208 210 211 212 212 212 214 214 213 215 214 208 208 210 212 213 213 215 217 216 215 216 217 218 218 218 219 220 221 223 224 220 216 217 223 225 226 227 230 234 238 240 240 240 243 247 250 256 260 262 266 271 272 273 271 267 265 263 258 254 255 259 265 268 268 269 272 273 273 274 276 280 280 277 274 268 259 254 254 257 266
201 202 202 203 205 208 209 209 209 210 212 215 214 214 214 210 210 212 213 213 215 217 219 219 218 216 216 217 219 221 222 221 223 226 227 224 222 221 223 223 223 226 231 236 240 244 245 244 244 246 250 256 261 265 268 271 272 273 272 270 269 267 263 260 259 261 267 271 270 270 273 273 273 274 275 277 278 276 272 265 257 256 257 258 265
199 201 202 203 204 206 207 207 207 208 210 213 212 213 214 211 211 213 215 215 216 218 219 220 220 218 215 212 214 219 221 220 223 227 229 228 227 226 226 227 227 229 235 239 243 246 248 247 245 246 250 255 259 262 266 269 270 271 273 272 271 270 268 267 264 263 266 269 269 272 275 273 271 269 269 271 271 267 263 260 256 257 260 262 265
202 202 203 204 204 206 206 205 205 206 208 210 208 208 211 209 208 210 214 214 214 216 219 219 216 214 211 209 211 215 219 221 224 227 228 229 230 229 231 236 238 242 246 249 251 253 253 251 249 247 251 254 256 258 261 265 267 268 271 272 269 268 268 268 267 264 264 265 269 273 274 274 272 267 266 269 270 266 261 258 256 257 260 264 267
211 213 212 209 206 204 201 199 197 197 199 201 202 203 205 205 205 207 209 210 213 217 218 217 212 207 207 211 216 217 220 224 227 228 229 230 230 229 231 238 244 248 250 251 252 254 254 254 251 250 253 256 256 254 255 259 262 265 267 270 270 269 267 266 265 262 260 262 268 273 276 278 276 272 271 272 274 273 268 265 263 262 264 265 266
214 222 224 220 216 209 204 199 194 191 190 189 189 191 194 198 203 205 203 205 211 215 215 214 209 208 213 219 222 221 224 229 231 231 231 232 234 234 234 239 244 247 249 250 250 250 251 251 250 250 253 255 256 254 253 254 256 259 263 266 267 267 266 264 261 258 258 260 263 269 275 279 277 274 274 276 278 277 274 274 272 272 272 269 264
189 202 205 206 209 211 209 204 198 197 197 196 191 187 186 189 196 199 199 201 207 211 214 213 211 213 220 224 224 224 228 234 235 234 234 235 237 238 239 240 242 244 247 250 251 252 251 251 250 250 250 251 253 254 254 254 255 257 260 263 263 262 262 261 259 257 257 257 258 261 267 273 274 275 276 277 277 275 274 277 277 274 270 265 261
160 177 185 189 193 200 205 205 202 200 200 202 203 199 192 188 189 191 193 198 204 208 212 214 213 214 217 220 223 225 229 233 234 234 236 238 239 240 241 241 241 243 245 248 252 254 255 255 253 252 251 251 251 251 252 253 254 255 256 257 258 259 259 258 256 257 257 257 256 257 262 266 270 274 277 277 276 274 273 273 274 272 268 261 258
146 162 170 173 174 181 189 195 199 200 200 202 204 202 200 201 202 201 202 206 209 210 211 213 213 213 213 218 223 226 228 230 233 236 239 241 242 242 243 243 243 244 246 248 251 254 257 260 259 257 256 255 254 254 254 253 254 254 254 253 256 258 260 259 257 256 256 256 255 255 257 262 267 272 277 279 277 273 269 268 268 267 265 261 258
127 139 150 152 155 162 161 154 159 170 181 191 194 196 199 202 206 209 209 206 205 207 209 211 213 214 217 222 225 228 231 233 237 240 241 242 244 245 246 245 244 244 245 246 248 251 255 260 262 261 260 260 260 259 259 259 257 256 253 253 255 258 259 260 260 258 257 256 255 255 257 260 264 269 275 278 276 270 265 264 265 264 262 260 258
123 126 133 137 141 146 145 137 133 134 141 151 160 174 186 188 193 199 199 197 198 202 203 204 208 212 218 223 227 231 234 238 241 243 243 244 246 247 247 246 244 244 247 250 253 257 260 261 263 263 263 265 265 264 263 263 261 257 253 252 254 257 257 258 259 259 258 255 254 254 255 258 261 266 272 275 271 265 262 262 261 261 259 257 257
123 122 122 124 127 130 132 135 133 132 135 139 140 154 171 173 176 185 190 193 199 203 204 206 210 215 221 227 231 234 238 241 246 249 249 249 250 251 252 252 252 252 254 258 262 265 266 265 264 264 263 264 266 266 265 264 262 259 255 253 254 256 255 255 256 255 254 252 251 251 252 254 258 262 268 270 267 263 261 260 258 257 256 256 257
112 111 108 107 111 115 121 129 131 128 129 131 134 147 160 159 161 172 182 188 194 201 206 211 217 222 227 232 236 240 244 248 252 257 260 260 259 260 262 265 266 265 264 264 265 266 267 266 264 263 262 262 263 264 264 264 264 263 261 260 260 259 256 254 253 252 250 247 245 245 248 252 256 259 263 266 265 262 259 260 259 257 256 256 257
102 105 104 101 102 106 112 120 127 128 128 132 142 156 163 162 161 170 182 188 193 199 205 210 219 226 231 237 242 245 250 255 257 259 263 265 265 266 269 272 275 277 275 271 269 268 268 266 264 263 261 260 261 263 266 269 269 268 268 266 263 260 257 255 252 251 251 250 248 248 250 252 253 255 259 264 266 263 259 259 260 258 257 257 258
107 108 106 106 108 108 109 111 111 114 116 120 133 145 149 150 152 159 170 179 186 194 199 204 215 225 232 241 248 252 256 264 265 257 257 263 267 270 274 280 288 291 286 278 270 265 262 261 262 263 262 262 265 267 271 273 274 274 273 271 269 265 260 256 253 250 250 252 252 251 250 249 250 253 258 266 270 267 260 256 255 254 254 254 256
111 110 108 111 110 104 101 99 97 97 97 99 110 118 115 116 119 122 126 132 136 143 151 159 179 201 213 230 246 255 261 273 287 278 264 273 286 290 294 305 320 314 291 277 260 252 253 259 267 274 276 276 276 276 277 277 277 277 276 275 277 270 254 247 247 247 248 248 248 247 245 242 241 245 255 265 270 267 260 254 251 250 249 249 250
104 101 100 103 101 96 92 88 85 85 85 85 94 101 103 106 107 105 104 108 112 115 120 128 137 146 154 180 211 226 238 260 286 291 285 294 302 308 316 323 335 337 247 247 241 246 265 290 305 312 311 304 297 294 293 290 288 290 287 282 281 271 251 240 236 235 237 238 235 234 236 235 233 236 246 257 263 261 253 248 247 246 246 247 249
92 86 83 86 90 91 90 88 84 84 84 83 84 91 101 107 107 106 109 114 118 122 128 131 132 136 141 151 164 167 172 187 246 283 307 329 328 339 352 323 256 172 190 229 251 277 308 322 326 331 331 324 321 321 318 316 316 319 315 300 288 277 263 250 239 234 236 234 225 216 216 223 230 234 237 241 247 247 243 242 242 243 246 248 251
86 82 78 80 87 92 95 95 94 91 92 91 87 91 101 107 107 109 112 113 115 120 127 132 137 142 148 162 171 167 166 187 275 285 308 13 58 82 72 277 237 226 252 277 292 305 316 318 322 338 342 335 336 341 338 336 340 343 341 328 311 293 274 264 260 261 270 274 245 206 199 211 224 229 228 229 234 238 240 243 245 247 250 251 251
81 77 71 73 80 85 89 93 94 93 94 93 91 92 99 104 106 107 107 106 107 113 121 130 139 144 154 177 193 187 187 269 308 310 324 12 34 25 352 306 272 270 280 291 299 307 315 310 316 344 356 348 348 346 332 322 325 332 337 335 329 322 313 299 284 278 285 294 290 260 220 217 226 236 238 238 239 240 240 241 244 247 248 248 246
77 75 73 75 78 79 82 85 86 86 87 88 89 93 99 105 108 108 109 109 112 117 123 132 141 147 157 173 189 191 203 269 314 325 329 336 337 326 308 298 293 290 292 298 307 319 320 298 298 320 337 337 334 328 323 322 320 320 324 326 327 325 322 318 310 296 285 281 275 263 254 258 266 264 258 253 244 236 232 232 234 236 238 242 243
79 76 76 80 83 84 83 82 82 82 81 81 85 92 100 108 111 113 113 112 111 115 125 134 137 138 144 153 154 107 335 310 311 314 317 316 314 306 294 284 280 277 276 281 291 301 297 283 284 294 303 307 307 306 312 319 319 317 314 314 316 316 316 316 313 306 300 297 289 275 265 273 283 279 272 265 246 231 225 224 223 219 219 227 231
86 79 75 75 79 83 81 79 81 82 79 78 84 91 97 102 103 102 100 95 89 92 105 116 107 86 75 66 41 19 1 342 326 316 311 308 303 296 286 279 277 274 272 272 275 277 275 270 272 279 282 285 289 296 301 305 308 310 308 305 305 304 303 301 300 296 291 289 285 269 237 229 256 279 285 267 229 219 217 215 212 209 207 213 219
92 83 71 63 63 72 78 78 80 82 79 78 83 90 94 97 92 84 79 67 53 55 63 58 31 15 4 356 353 347 342 338 330 320 314 310 305 298 289 282 274 269 268 269 269 268 269 268 268 272 276 280 284 289 293 297 301 303 302 300 297 293 289 287 284 274 260 255 259 250 223 209 206 207 215 218 204 202 205 203 209 217 217 212 210
104 88 68 50 46 58 75 78 78 82 85 83 82 85 89 91 79 53 37 20 7 9 10 356 339 329 323 325 324 321 321 324 323 317 311 307 305 304 303 300 289 276 270 270 269 267 266 266 267 271 276 281 285 289 294 298 300 299 297 297 294 286 279 278 278 268 251 245 246 242 230 223 221 224 229 230 229 230 225 211 201 201 200 196 196
Height
1551 1553 1554 1556 1558 1559 1560 1561 1562 1564 1565 1566 1568 1569 1571 1572 1574 1575 1577 1578 1580 1581 1582 1583 1584 1585 1585 1586 1587 1588 1589 1590 1591 1592 1592 1593 1594 1594 1594 1595 1596 1596 1597 1597 1597 1597 1598 1598 1599 1599 1599 1600 1600 1600 1600 1601 1601 1601 1601 1601 1601 1601 1600 1600 1600 1600 1601 1601 1601 1601 1601 1601 1600 1600 1600 1600 1600 1600 1600 1600 1600 1599 1599 1599 1599
1551 1552 1554 1555 1557 1559 1560 1561 1562 1563 1564 1566 1567 1569 1570 1572 1573 1575 1576 1578 1579 1580 1581 1583 1584 1584 1585 1586 1587 1588 1589 1590 1591 1592 1593 1593 1594 1594 1595 1595 1596 1597 1597 1597 1597 1598 1598 1598 1599 1599 1600 1600 1600 1600 1601 1601 1601 1601 1602 1602 1602 1601 1601 1601 1601 1601 1601 1601 1601 1602 1602 1601 1601 1601 1601 1601 1600 1600 1600 1600 1600 1600 1600 1599 1599
1550 1552 1553 1555 1557 1558 1560 1561 1562 1563 1564 1566 1567 1568 1570 1572 1573 1574 1575 1577 1578 1580 1581 1582 1583 1584 1586 1586 1587 1588 1589 1590 1591 1592 1593 1593 1594 1594 1595 1595 1596 1597 1597 1597 1598 1598 1598 1599 1599 1600 1600 1600 1600 1601 1601 1602 1602 1602 1602 1602 1602 1602 1602 1602 1602 1602 1602 1602 1602 1602 1602 1602 1602 1601 1601 1601 1601 1601 1601 1600 1600 1600 1600 1599 1599
1549 1551 1553 1554 1556 1558 1559 1560 1562 1564 1564 1565 1567 1568 1570 1571 1572 1574 1575 1576 1577 1579 1580 1582 1583 1584 1586 1587 1588 1589 1589 1590 1591 1592 1592 1593 1593 1594 1594 1595 1596 1596 1597 1597 1598 1598 1598 1599 1599 1600 1600 1600 1601 1601 1601 1602 1602 1602 1603 1603 1603 1602 1602 1602 1602 1602 1602 1602 1602 1602 1602 1602 1602 1602 1601 1601 1601 1601 1601 1601 1600 1600 1600 1600 1599
1547 1550 1552 1553 1555 1557 1558 1560 1561 1563 1564 1565 1566 1568 1569 1570 1572 1573 1575 1576 1577 1578 1580 1581 1583 1584 1585 1586 1587 1588 1589 1590 1590 1591 1592 1592 1593 1593 1594 1595 1596 1596 1597 1597 1598 1598 1599 1599 1600 1600 1600 1601 1601 1601 1601 1602 1602 1603 1603 1603 1603 1603 1603 1603 1602 1602 1603 1603 1603 1602 1602 1602 1602 1602 1602 1601 1601 1601 1601 1601 1601 1601 1600 1600 1599
1546 1548 1551 1552 1554 1556 1558 1559 1560 1562 1563 1565 1566 1567 1569 1570 1572 1573 1574 1576 1577 1578 1580 1581 1582 1583 1584 1585 1586 1587 1588 1589 1589 1590 1591 1592 1593 1593 1594 1595 1595 1596 1596 1597 1598 1598 1598 1599 1599 1600 1600 1600 1601 1601 1601 1602 1602 1603 1603 1603 1603 1603 1603 1603 1603 1603 1603 1603 1603 1603 1603 1603 1602 1602 1602 1602 1602 1601 1601 1601 1601 1601 1600 1600 1599
1545 1547 1549 1551 1553 1555 1557 1558 1559 1561 1562 1564 1566 1567 1569 1570 1571 1572 1574 1575 1576 1578 1579 1580 1582 1583 1584 1585 1586 1586 1587 1588 1589 1590 1591 1592 1593 1593 1594 1594 1595 1596 1596 1597 1597 1598 1598 1599 1599 1600 1600 1600 1601 1601 1602 1602 1603 1603 1603 1603 1603 1603 1603 1603 1603 1603 1603 1603 1603 1603 1603 1603 1603 1602 1602 1602 1602 1602 1602 1601 1601 1601 1600 1600 1599
1544 1546 1548 1550 1552 1554 1555 1557 1558 1560 1562 1564 1566 1567 1568 1570 1571 1572 1573 1574 1576 1577 1578 1580 1581 1582 1583 1585 1586 1586 1587 1588 1589 1590 1591 1592 1593 1593 1593 1594 1595 1595 1596 1596 1597 1597 1598 1598 1599 1599 1600 1600 1601 1601 1602 1602 1602 1603 1603 1603 1603 1603 1603 1603 1603 1603 1603 1603 1603 1603 1603 1603 1603 1603 1603 1603 1602 1602 1602 1601 1601 1601 1600 1600 1599
1542 1545 1547 1548 1550 1552 1554 1556 1557 1559 1561 1563 1565 1566 1568 1570 1571 1572 1573 1574 1575 1576 1578 1579 1580 1582 1583 1584 1585 1586 1587 1588 1589 1590 1591 1591 1592 1592 1593 1594 1594 1595 1595 1596 1596 1597 1597 1598 1598 1599 1599 1600 1600 1601 1601 1602 1602 1602 1603 1603 1603 1603 1603 1603 1603 1603 1604 1604 1604 1604 1603 1603 1603 1603 1603 1603 1602 1602 1602 1601 1601 1601 1600 1600 1599
1540 1543 1545 1547 1549 1551 1553 1555 1557 1558 1560 1562 1564 1566 1568 1569 1570 1571 1572 1573 1575 1576 1577 1579 1580 1581 1582 1583 1584 1586 1587 1588 1588 1589 1590 1591 1591 1592 1592 1593 1594 1594 1595 1595 1596 1596 1597 1597 1598 1598 1599 1599 1600 1601 1601 1602 1602 1602 1602 1602 1603 1603 1603 1603 1603 1603 1604 1604 1604 1603 1603 1603 1603 1603 1603 1602 1602 1602 1601 1601 1601 1600 1600 1599 1599
1539 1542 1544 1546 1548 1550 1552 1554 1556 1557 1559 1561 1563 1565 1566 1568 1569 1570 1572 1573 1574 1576 1577 1578 1579 1580 1582 1583 1584 1585 1586 1587 1587 1588 1589 1590 1591 1591 1592 1593 1593 1594 1595 1595 1595 1596 1596 1597 1597 1598 1598 1599 1600 1600 1601 1601 1601 1602 1602 1602 1602 1602 1602 1603 1603 1603 1603 1603 1603 1603 1603 1603 1603 1603 1602 1602 1602 1601 1601 1601 1600 1600 1599 1599 1599
1538 1541 1543 1545 1547 1549 1551 1553 1554 1556 1558 1560 1561 1563 1565 1567 1568 1570 1571 1573 1574 1575 1577 1578 1579 1580 1581 1582 1583 1584 1585 1586 1587 1587 1589 1589 1590 1591 1591 1592 1593 1594 1594 1594 1595 1595 1596 1596 1597 1597 1598 1599 1599 1600 1600 1601 1601 1601 1602 1602 1602 1602 1602 1602 1603 1602 1603 1603 1603 1603 1603 1603 1603 1602 1602 1602 1601 1601 1601 1600 1600 1599 1599 1598 1598
1536 1539 1541 1544 1546 1548 1550 1551 1553 1555 1556 1558 1560 1562 1564 1565 1567 1569 1570 1572 1573 1575 1576 1577 1578 1579 1580 1581 1582 1584 1585 1585 1586 1587 1588 1589 1590 1590 1591 1591 1592 1593 1593 1594 1594 1595 1596 1596 1596 1597 1597 1598 1598 1599 1600 1600 1600 1601 1601 1601 1601 1602 1602 1602 1602 1602 1602 1602 1603 1603 1602 1602 1602 1602 1602 1601 1601 1601 1600 1600 1599 1599 1598 1598 1597
1535 1537 1540 1542 1544 1545 1548 1550 1551 1553 1555 1557 1558 1560 1562 1564 1566 1567 1569 1571 1572 1574 1575 1576 1578 1579 1580 1581 1582 1583 1584 1585 1586 1587 1588 1588 1589 1590 1590 1591 1591 1592 1593 1593 1594 1594 1595 1595 1596 1596 1597 1597 1598 1598 1599 1599 1600 1600 1600 1601 1601 1601 1601 1601 1602 1602 1602 1602 1602 1602 1602 1602 1602 1601 1601 1601 1600 1600 1600 1599 1599 1599 1598 1597 1597
1534 1536 1538 1540 1542 1544 1546 1548 1550 1552 1554 1555 1557 1559 1561 1562 1564 1566 1568 1570 1571 1573 1574 1575 1577 1578 1579 1580 1581 1582 1584 1584 1585 1586 1587 1588 1588 1589 1590 1591 1591 1592 1592 1593 1593 1594 1594 1595 1595 1596 1596 1597 1597 1598 1598 1598 1599 1599 1599 1600 1600 1600 1601 1601 1601 1601 1601 1601 1601 1601 1601 1601 1601 1601 1601 1601 1600 1600 1599 1599 1599 1598 1597 1597 1596
1532 1534 1535 1538 1540 1542 1544 1546 1548 1550 1552 1554 1555 1557 1559 1561 1563 1565 1567 1569 1570 1572 1573 1575 1576 1578 1578 1580 1581 1582 1583 1584 1584 1586 1586 1587 1588 1589 1590 1590 1591 1591 1592 1592 1593 1593 1594 1594 1594 1595 1596 1596 1597 1597 1597 1598 1598 1598 1599 1599 1599 1599 1600 1600 1600 1600 1600 1600 1600 1600 1601 1601 1601 1600 1600 1600 1600 1600 1599 1599 1598 1598 1597 1596 1595
1529 1531 1533 1536 1538 1540 1542 1544 1546 1548 1550 1552 1554 1555 1557 1559 1561 1563 1565 1567 1569 1571 1572 1574 1575 1577 1578 1579 1580 1581 1582 1583 1584 1585 1586 1587 1588 1588 1589 1590 1590 1591 1591 1592 1592 1593 1593 1593 1594 1594 1595 1595 1596 1596 1597 1597 1597 1598 1598 1598 1599 1599 1599 1599 1599 1599 1599 1599 1599 1599 1600 1600 1600 1600 1600 1600 1599 1599 1599 1599 1598 1598 1597 1596 1595
1527 1529 1531 1534 1536 1539 1541 1543 1545 1546 1548 1550 1552 1554 1556 1558 1560 1562 1564 1565 1567 1569 1571 1573 1574 1575 1577 1578 1579 1580 1581 1583 1583 1584 1586 1586 1587 1588 1588 1589 1590 1590 1591 1591 1592 1592 1593 1593 1593 1594 1594 1594 1595 1595 1596 1596 1597 1597 1597 1597 1598 1598 1598 1598 1598 1598 1598 1598 1598 1598 1598 1599 1599 1599 1599 1599 1599 1599 1599 1598 1598 1597 1597 1596 1595
1525 1527 1530 1533 1535 1538 1539 1541 1543 1545 1547 1549 1551 1553 1555 1557 1559 1561 1563 1564 1566 1568 1570 1572 1573 1574 1576 1577 1578 1580 1581 1582 1583 1584 1585 1586 1586 1587 1588 1589 1589 1590 1590 1591 1591 1592 1592 1593 1593 1593 1593 1594 1594 1595 1595 1596 1596 1596 1596 1597 1597 1597 1597 1597 1597 1597 1597 1597 1597 1597 1598 1598 1598 1598 1598 1598 1598 1598 1598 1598 1597 1597 1596 1596 1595
1523 1526 1529 1531 1533 1536 1537 1540 1542 1544 1546 1548 1550 1552 1554 1556 1558 1560 1562 1564 1565 1567 1569 1570 1572 1573 1575 1576 1578 1579 1580 1582 1583 1583 1584 1585 1586 1587 1587 1588 1589 1589 1590 1590 1591 1591 1591 1592 1592 1593 1593 1593 1594 1594 1594 1595 1595 1595 1595 1596 1596 1596 1596 1596 1596 1596 1596 1596 1596 1596 1597 1597 1597 1597 1597 1597 1597 1597 1597 1597 1597 1596 1596 1595 1595
1522 1524 1527 1529 1532 1534 1536 1538 1540 1542 1545 1546 1548 1551 1552 1554 1557 1559 1561 1563 1564 1566 1568 1570 1571 1573 1574 1576 1577 1578 1580 1581 1582 1583 1583 1584 1585 1586 1587 1588 1588 1589 1589 1590 1590 1590 1591 1591 1591 1592 1592 1593 1593 1593 1594 1594 1594 1594 1594 1595 1595 1595 1595 1595 1595 1595 1595 1595 1595 1595 1596 1596 1596 1596 1596 1596 1596 1596 1596 1596 1596 1596 1595 1595 1594
1519 1522 1525 1527 1530 1533 1536 1538 1539 1541 1543 1545 1547 1549 1551 1553 1555 1558 1560 1562 1564 1565 1567 1569 1570 1572 1573 1575 1576 1578 1579 1580 1581 1582 1583 1583 1585 1585 1586 1587 1587 1588 1589 1589 1589 1590 1590 1590 1591 1591 1592 1592 1592 1593 1593 1593 1593 1594 1594 1594 1594 1594 1594 1594 1594 1595 1595 1595 1595 1595 1595 1595 1595 1595 1594 1594 1594 1594 1594 1594 1594 1594 1594 1594 1593
1517 1519 1522 1524 1527 1531 1534 1537 1538 1540 1541 1543 1545 1547 1550 1552 1554 1557 1558 1561 1563 1564 1566 1568 1570 1571 1573 1574 1576 1577 1578 1580 1580 1581 1582 1583 1584 1585 1586 1586 1587 1587 1588 1588 1589 1589 1589 1590 1590 1591 1591 1591 1592 1592 1592 1592 1592 1593 1593 1593 1593 1593 1593 1594 1594 1594 1594 1594 1594 1593 1593 1593 1593 1593 1593 1593 1593 1593 1593 1593 1593 1593 1593 1593 1592
1514 1516 1519 1521 1524 1528 1532 1535 1537 1539 1541 1543 1544 1546 1548 1551 1553 1555 1557 1560 1562 1563 1565 1567 1568 1570 1572 1573 1574 1576 1577 1578 1579 1580 1581 1582 1583 1583 1584 1585 1585 1586 1587 1587 1588 1588 1589 1589 1589 1590 1590 1590 1591 1591 1591 1592 1592 1592 1592 1592 1592 1592 1592 1593 1593 1593 1593 1593 1593 1592 1592 1592 1592 1592 1592 1592 1592 1592 1592 1592 1592 1592 1591 1591 1591
1511 1513 1516 1519 1522 1525 1528 1532 1535 1536 1538 1541 1543 1545 1547 1549 1551 1554 1556 1558 1560 1562 1564 1565 1567 1569 1570 1571 1573 1574 1575 1576 1577 1579 1580 1581 1582 1582 1583 1584 1584 1585 1586 1586 1587 1587 1587 1588 1588 1589 1589 1590 1590 1590 1590 1591 1591 1591 1591 1591 1591 1591 1591 1591 1591 1591 1591 1591 1591 1591 1591 1591 1591 1591 1590 1590 1590 1590 1591 1591 1591 1590 1590 1590 1590
1509 1510 1512 1515 1518 1522 1525 1529 1532 1534 1535 1537 1541 1545 1547 1548 1550 1552 1554 1556 1558 1560 1562 1563 1565 1566 1568 1569 1571 1572 1573 1574 1575 1576 1578 1579 1580 1581 1582 1582 1583 1584 1585 1585 1586 1586 1586 1586 1587 1587 1588 1588 1589 1589 1589 1589 1590 1590 1590 1590 1590 1590 1590 1590 1590 1590 1590 1590 1590 1590 1590 1590 1590 1589 1589 1589 1589 1589 1589 1589 1589 1589 1589 1589 1589
1508 1509 1511 1512 1514 1518 1521 1524 1528 1530 1531 1533 1537 1543 1546 1548 1549 1550 1551 1554 1557 1559 1560 1562 1563 1564 1566 1567 1569 1570 1571 1572 1573 1575 1576 1578 1579 1580 1581 1581 1582 1583 1584 1584 1584 1585 1585 1585 1586 1586 1586 1587 1587 1587 1588 1588 1588 1588 1588 1588 1589 1589 1589 1588 1589 1589 1589 1589 1589 1589 1589 1588 1588 1588 1588 1588 1588 1588 1588 1588 1588 1588 1588 1587 1587
1508 1509 1511 1512 1513 1515 1518 1521 1524 1526 1528 1530 1533 1538 1543 1547 1550 1551 1552 1554 1557 1559 1560 1561 1562 1563 1564 1566 1567 1569 1570 1572 1573 1574 1575 1576 1577 1578 1579 1580 1581 1581 1582 1582 1582 1583 1584 1584 1584 1584 1585 1585 1585 1586 1586 1586 1587 1587 1587 1587 1587 1587 1587 1587 1587 1587 1587 1587 1587 1587 1587 1587 1587 1586 1586 1586 1586 1586 1586 1586 1586 1586 1586 1586 1586
1509 1510 1511 1513 1514 1516 1518 1521 1522 1524 1526 1528 1531 1535 1538 1542 1546 1549 1552 1554 1555 1557 1558 1559 1561 1563 1564 1565 1566 1567 1569 1570 1571 1572 1573 1574 1575 1576 1577 1578 1579 1579 1580 1580 1581 1581 1582 1582 1582 1582 1583 1583 1583 1584 1584 1585 1585 1585 1585 1585 1585 1585 1585 1585 1586 1586 1586 1586 1586 1586 1585 1585 1585 1585 1585 1585 1584 1584 1584 1584 1585 1585 1585 1585 1585
1509 1510 1512 1514 1515 1517 1519 1521 1522 1523 1524 1525 1528 1532 1535 1539 1542 1545 1548 1551 1553 1555 1556 1557 1559 1561 1563 1564 1565 1566 1567 1568 1569 1571 1572 1573 1573 1574 1575 1576 1577 1577 1578 1578 1579 1579 1580 1580 1580 1580 1581 1581 1581 1582 1583 1583 1584 1584 1584 1584 1584 1584 1583 1583 1584 1584 1584 1584 1584 1584 1584 1584 1584 1583 1583 1583 1583 1583 1583 1583 1583 1583 1583 1583 1583
1509 1511 1512 1514 1516 1518 1519 1521 1522 1523 1523 1524 1526 1529 1532 1536 1539 1542 1545 1548 1551 1552 1554 1556 1557 1559 1561 1562 1563 1564 1565 1567 1568 1569 1570 1571 1572 1573 1573 1574 1575 1575 1576 1576 1577 1577 1577 1578 1578 1578 1579 1579 1579 1580 1580 1581 1582 1582 1582 1582 1582 1582 1582 1581 1582 1582 1582 1582 1582 1583 1583 1583 1582 1582 1582 1582 1582 1582 1582 1582 1582 1582 1582 1582 1582
1510 1511 1512 1514 1516 1517 1519 1521 1522 1523 1524 1524 1525 1528 1531 1534 1537 1541 1543 1546 1548 1550 1553 1555 1556 1557 1559 1560 1561 1562 1564 1565 1566 1567 1568 1569 1570 1570 1571 1572 1572 1573 1573 1573 1574 1575 1575 1575 1576 1576 1576 1577 1577 1578 1578 1579 1579 1580 1580 1580 1581 1581 1580 1580 1580 1580 1580 1580 1581 1581 1581 1581 1581 1581 1581 1581 1580 1580 1580 1580 1580 1580 1580 1580 1580
1510 1511 1513 1514 1515 1516 1518 1520 1521 1522 1524 1525 1526 1528 1530 1532 1535 1538 1541 1543 1546 1549 1551 1553 1555 1556 1557 1558 1560 1560 1562 1563 1564 1565 1566 1567 1567 1568 1569 1569 1569 1570 1570 1570 1571 1572 1572 1573 1573 1574 1574 1574 1575 1575 1576 1577 1577 1578 1578 1578 1579 1579 1578 1578 1578 1578 1578 1578 1578 1579 1579 1579 1580 1579 1579 1579 1579 1579 1578 1578 1578 1578 1578 1578 1578
1511 1512 1513 1514 1515 1515 1517 1518 1519 1521 1523 1525 1527 1528 1531 1532 1534 1537 1540 1543 1546 1548 1550 1552 1553 1554 1555 1556 1558 1559 1560 1561 1562 1563 1564 1564 1565 1565 1566 1566 1566 1567 1567 1567 1568 1569 1569 1570 1571 1571 1572 1572 1573 1573 1574 1574 1575 1575 1576 1576 1576 1576 1576 1576 1576 1576 1576 1576 1576 1577 1577 1577 1577 1577 1577 1577 1577 1577 1576 1576 1576 1576 1576 1576 1576
1513 1513 1514 1515 1515 1516 1517 1518 1519 1521 1522 1525 1527 1529 1531 1533 1535 1537 1540 1543 1546 1548 1549 1550 1552 1553 1554 1555 1556 1557 1558 1559 1560 1561 1562 1562 1563 1563 1564 1564 1564 1564 1564 1565 1565 1566 1566 1567 1568 1569 1570 1570 1570 1571 1571 1571 1572 1572 1572 1572 1572 1573 1573 1573 1573 1573 1573 1574 1574 1574 1574 1574 1575 1575 1575 1575 1575 1574 1574 1574 1574 1574 1574 1574 1574
1514 1514 1515 1515 1516 1517 1518 1519 1521 1523 1524 1525 1527 1529 1531 1532 1534 1537 1539 1542 1545 1546 1547 1548 1550 1551 1552 1553 1554 1555 1556 1557 1557 1558 1559 1560 1561 1561 1562 1562 1561 1561 1560 1560 1560 1561 1563 1564 1565 1566 1567 1568 1568 1568 1568 1569 1569 1569 1569 1569 1569 1569 1570 1570 1570 1571 1571 1571 1571 1571 1571 1572 1572 1572 1573 1573 1572 1572 1572 1572 1572 1572 1572 1572 1572
1516 1516 1516 1517 1518 1519 1520 1521 1522 1524 1525 1526 1527 1529 1530 1532 1534 1536 1539 1542 1543 1544 1544 1546 1548 1549 1550 1551 1552 1553 1553 1554 1555 1555 1556 1557 1558 1559 1559 1558 1557 1556 1556 1555 1557 1559 1561 1562 1562 1563 1564 1564 1565 1565 1565 1565 1566 1566 1566 1565 1565 1565 1565 1566 1567 1568 1568 1568 1568 1568 1568 1569 1569 1569 1570 1570 1570 1570 1569 1569 1569 1569 1570 1570 1570
1518 1518 1519 1519 1520 1521 1522 1523 1524 1526 1527 1527 1529 1530 1532 1533 1535 1537 1540 1542 1544 1544 1544 1545 1546 1548 1549 1549 1550 1551 1551 1552 1553 1553 1553 1555 1555 1556 1556 1556 1556 1556 1555 1555 1556 1558 1559 1559 1560 1561 1561 1561 1561 1561 1561 1561 1561 1561 1562 1562 1562 1562 1562 1563 1563 1564 1564 1564 1564 1564 1565 1566 1566 1566 1567 1567 1567 1567 1567 1567 1567 1567 1567 1568 1568
1520 1521 1521 1522 1522 1523 1524 1525 1526 1527 1528 1529 1531 1532 1533 1535 1536 1538 1540 1542 1543 1544 1544 1545 1546 1546 1547 1548 1548 1549 1550 1551 1551 1552 1552 1553 1554 1554 1554 1554 1554 1554 1554 1554 1555 1556 1556 1557 1557 1557 1557 1557 1557 1557 1557 1557 1557 1557 1557 1558 1558 1558 1559 1559 1560 1560 1560 1561 1560 1560 1561 1562 1563 1563 1564 1564 1564 1565 1565 1564 1564 1565 1565 1565 1565
1523 1523 1523 1524 1525 1525 1526 1527 1527 1528 1530 1531 1533 1534 1534 1535 1537 1538 1539 1540 1541 1542 1543 1544 1544 1545 1545 1546 1547 1547 1548 1549 1550 1551 1552 1552 1552 1552 1552 1551 1551 1551 1552 1553 1554 1553 1553 1553 1554 1554 1553 1554 1553 1553 1553 1553 1553 1554 1554 1553 1553 1553 1554 1554 1555 1555 1556 1557 1557 1558 1559 1560 1560 1561 1561 1561 1562 1562 1562 1562 1562 1562 1562 1562 1562
1526 1526 1525 1526 1527 1527 1528 1528 1529 1530 1531 1532 1533 1534 1534 1535 1536 1537 1538 1539 1540 1541 1541 1542 1543 1543 1544 1545 1545 1546 1547 1547 1548 1550 1551 1551 1551 1550 1550 1549 1549 1550 1550 1550 1551 1551 1550 1550 1551 1551 1550 1551 1550 1550 1550 1550 1550 1550 1550 1549 1548 1549 1550 1550 1550 1551 1551 1552 1554 1555 1556 1557 1557 1558 1559 1559 1559 1559 1559 1559 1559 1559 1559 1560 1560
1528 1528 1527 1528 1529 1530 1530 1531 1531 1531 1532 1533 1534 1534 1534 1535 1536 1536 1537 1538 1539 1540 1540 1541 1542 1542 1543 1544 1545 1546 1547 1548 1549 1550 1550 1550 1550 1549 1548 1548 1548 1549 1549 1549 1550 1550 1549 1549 1550 1550 1549 1549 1548 1548 1548 1548 1547 1547 1547 1546 1546 1547 1547 1546 1546 1547 1547 1548 1549 1550 1551 1552 1553 1554 1556 1556 1556 1557 1557 1557 1556 1556 1556 1557 1557
1529 1529 1529 1530 1530 1531 1532 1532 1533 1533 1534 1534 1535 1535 1535 1536 1537 1537 1538 1538 1539 1540 1540 1541 1542 1542 1543 1544 1545 1546 1547 1548 1549 1550 1550 1550 1550 1549 1548 1547 1547 1548 1549 1549 1550 1550 1550 1550 1549 1549 1548 1548 1547 1547 1547 1547 1546 1546 1545 1545 1545 1545 1544 1544 1544 1544 1543 1543 1543 1544 1545 1547 1548 1550 1552 1553 1554 1554 1554 1554 1554 1553 1553 1554 1554
1531 1531 1531 1531 1531 1532 1533 1534 1535 1535 1536 1536 1536 1536 1536 1537 1537 1538 1539 1540 1540 1541 1541 1542 1542 1543 1544 1545 1547 1548 1548 1549 1550 1550 1550 1550 1550 1549 1549 1548 1548 1548 1549 1550 1550 1550 1550 1550 1549 1549 1548 1547 1547 1547 1547 1547 1546 1546 1545 1545 1544 1544 1543 1543 1543 1542 1541 1539 1538 1538 1541 1544 1546 1547 1549 1550 1551 1551 1551 1552 1551 1551 1551 1551 1552
1533 1533 1533 1533 1534 1534 1535 1536 1537 1538 1538 1538 1539 1538 1538 1538 1539 1540 1541 1541 1542 1542 1543 1543 1544 1545 1546 1547 1548 1549 1549 1550 1551 1551 1551 1551 1551 1550 1550 1549 1549 1549 1549 1550 1551 1551 1551 1550 1550 1549 1549 1548 1547 1547 1548 1547 1547 1547 1546 1545 1544 1544 1543 1543 1543 1542 1541 1539 1538 1538 1540 1543 1545 1546 1547 1548 1549 1549 1549 1549 1549 1549 1549 1550 1550
1535 1534 1535 1535 1536 1536 1537 1537 1538 1539 1540 1540 1541 1541 1541 1541 1541 1542 1543 1543 1544 1544 1545 1545 1546 1547 1548 1548 1549 1549 1550 1551 1551 1551 1551 1552 1552 1551 1551 1551 1550 1550 1550 1551 1551 1551 1551 1551 1550 1550 1549 1549 1548 1548 1548 1548 1548 1547 1547 1546 1545 1545 1544 1543 1543 1542 1541 1540 1540 1540 1541 1543 1544 1545 1546 1547 1547 1547 1547 1548 1548 1548 1548 1549 1549
1537 1537 1537 1538 1538 1538 1539 1539 1540 1541 1541 1542 1542 1543 1543 1543 1544 1544 1545 1545 1546 1546 1547 1547 1548 1549 1549 1550 1550 1551 1551 1552 1552 1552 1552 1552 1552 1552 1552 1552 1552 1551 1551 1551 1551 1552 1551 1551 1550 1550 1550 1549 1549 1548 1548 1548 1547 1547 1547 1546 1546 1545 1545 1544 1543 1542 1542 1541 1541 1542 1542 1543 1544 1545 1545 1546 1546 1546 1546 1546 1546 1546 1547 1548 1549
1538 1539 1540 1540 1540 1541 1541 1541 1542 1542 1543 1543 1544 1544 1545 1545 1545 1546 1546 1547 1547 1548 1548 1549 1550 1550 1551 1552 1552 1552 1552 1553 1553 1553 1553 1553 1553 1553 1553 1553 1552 1552 1552 1551 1551 1551 1551 1551 1551 1550 1550 1549 1549 1548 1548 1548 1547 1547 1546 1546 1546 1545 1545 1544 1543 1543 1542 1542 1542 1543 1543 1543 1544 1544 1545 1545 1545 1545 1545 1545 1545 1546 1546 1548 1549
1540 1541 1542 1543 1543 1544 1543 1543 1544 1544 1544 1545 1545 1546 1546 1546 1547 1548 1548 1548 1549 1549 1550 1550 1551 1552 1552 1553 1553 1553 1553 1553 1554 1554 1554 1554 1553 1553 1553 1553 1552 1552 1552 1551 1551 1551 1551 1551 1550 1550 1550 1549 1549 1548 1548 1547 1547 1546 1546 1546 1546 1545 1544 1544 1543 1543 1543 1543 1543 1544 1544 1545 1545 1545 1545 1545 1545 1545 1544 1545 1546 1546 1547 1548 1550
1542 1543 1544 1544 1545 1545 1545 1546 1546 1546 1546 1546 1547 1547 1548 1548 1549 1549 1550 1550 1551 1551 1552 1552 1552 1553 1553 1553 1553 1553 1553 1554 1554 1554 1554 1553 1553 1553 1553 1552 1552 1552 1551 1551 1551 1551 1551 1550 1550 1550 1550 1549 1548 1548 1548 1547 1546 1546 1545 1545 1545 1544 1544 1543 1543 1542 1542 1542 1543 1544 1545 1545 1546 1546 1546 1546 1546 1545 1545 1546 1546 1547 1548 1549 1550
1544 1544 1545 1546 1546 1547 1547 1547 1547 1548 1548 1548 1549 1550 1550 1550 1551 1551 1551 1552 1553 1553 1554 1554 1554 1554 1554 1554 1554 1554 1553 1553 1553 1553 1553 1553 1552 1552 1552 1552 1552 1551 1551 1551 1551 1551 1551 1551 1550 1550 1549 1549 1548 1547 1547 1546 1545 1544 1544 1544 1543 1543 1542 1542 1542 1542 1542 1542 1542 1543 1544 1545 1546 1546 1545 1545 1546 1546 1546 1546 1546 1547 1548 1549 1549